Location: San Francisco
(37.7750°N, 122.4180°W)
Time: 16:12:58
(UTC-08:00)

Daily predictions for brighter satellites

Satellite Brightness Start Highest point End
(mag) Time Altitude Azimuth Time Altitude Azimuth Time Altitude Azimuth
ERS-2 3.7 17:18:11 10° ESE 17:20:33 16° ENE 17:22:54 10° NNE
Cosmos 1814 Rocket 4.1 17:19:31 10° N 17:24:49 60° ENE 17:30:05 10° SSE
USA 161 4.0 17:31:02 10° NW 17:31:52 12° WNW 17:32:42 10° W
Tsikada Rocket 4.1 17:27:48 10° N 17:33:59 84° W 17:40:10 10° S
Lacrosse 5 4.2 17:32:20 10° NW 17:34:00 11° NNW 17:35:40 10° N
BREEZE-M R/B 3.4 17:32:22 10° NNW 17:34:47 28° NNE 17:38:22 10° E
Cosmos 1703 Rocket 4.0 17:31:25 10° SSE 17:35:35 40° E 17:39:46 10° NNE
Cosmos 540 Rocket 4.4 17:31:35 10° N 17:35:51 25° ENE 17:40:05 10° ESE
Ariane Rocket 3.0 17:31:47 10° SSE 17:36:52 82° ENE 17:41:58 10° NNW
Cosmos 2346 Rocket 4.4 17:31:04 10° N 17:37:14 74° E 17:43:25 10° SSE
CZ-2C R/B 3.7 17:34:22 10° NNE 17:38:49 59° ESE 17:43:18 10° S
Cosmos 304 Rocket 3.7 17:34:17 10° NNW 17:39:05 69° ENE 17:43:50 10° SSE
Cosmos 1844 Rocket 4.4 17:34:56 10° WSW 17:39:52 31° WNW 17:44:49 10° N
Cosmos 1437 4.4 17:41:08 10° SSW 17:44:05 36° WNW 17:47:02 10° N
Cosmos 841 Rocket 3.5 17:40:11 10° N 17:45:25 61° ENE 17:50:36 10° SSE
Cosmos 1633 3.2 17:44:09 10° NNE 17:47:30 33° E 17:50:51 10° SE
USA 234 3.6 17:42:57 10° NE 17:49:11 50° SE 17:55:28 10° SSW
Okean 2 Rocket 4.1 17:47:56 10° NNE 17:51:40 25° ENE 17:55:22 10° SE
Cosmos 1486 Rocket 4.1 17:48:35 10° SSW 17:53:47 79° WNW 17:59:03 10° NNE
FENGYUN 3A 4.3 17:52:50 10° SE 17:57:37 33° ENE 18:02:23 10° N
Cosmos 44 4.3 17:55:37 10° N 17:59:29 25° NE 18:01:26 19° E
Cosmos 1908 Rocket 3.5 17:58:27 10° N 18:02:49 87° WSW 18:07:07 10° S
BREEZE-M DEB (TANK) 3.4 17:55:34 10° WNW 18:03:44 62° SW 18:07:00 10° SE
SKYMED 2 3.6 17:59:58 10° NNE 18:04:17 60° E 18:08:33 10° S
Meteor 1-14 Rocket 4.5 18:00:01 10° NNW 18:05:39 73° W 18:11:10 10° S
Cosmos 1464 Rocket 4.0 18:01:03 10° S 18:07:01 58° E 18:13:02 10° NNE
ERBS 4.0 18:04:43 10° WNW 18:07:52 35° SW 18:11:01 10° SSE
Cosmos 1833 Rocket 2.8 18:05:10 10° NNW 18:10:38 51° ENE 18:16:06 10° SE
ALOS 2.6 18:06:17 10° SE 18:10:39 41° ENE 18:15:02 10° N
Cosmos 1354 Rocket 3.9 18:05:54 10° S 18:11:10 75° ESE 18:16:26 10° NNE
Cosmos 2297 3.6 18:06:54 10° SSW 18:12:35 74° ESE 18:18:12 11° NNE
SPOT 3 Rocket 3.6 18:09:12 10° SSE 18:14:16 54° ENE 18:19:21 10° N
Cosmos 2278 Rocket 3.4 18:11:54 10° SW 18:17:14 41° WNW 18:22:36 10° N
CZ-4 R/B 2.6 18:15:34 10° S 18:19:16 43° W 18:22:56 10° NNW
Sich 1 Rocket 3.9 18:15:51 10° NNW 18:20:16 68° W 18:24:41 10° S
Meteor 1-11 Rocket 4.1 18:18:02 10° N 18:23:33 42° ENE 18:28:55 10° SE
Cosmos 1441 Rocket 3.5 18:19:55 10° SSE 18:23:42 46° E 18:24:32 39° ENE
Cosmos 1606 3.3 18:20:01 10° SSW 18:23:43 55° W 18:27:27 10° N
Okean 1-7 3.3 18:23:33 10° SSW 18:27:55 72° W 18:32:19 10° N
EO 1 Del DPAF 3.8 18:30:11 10° N 18:33:57 57° WNW 18:37:41 10° SSW
USA 229 DEB 4.3 18:28:21 10° S 18:34:12 33° ESE 18:35:11 31° E
USA 229 4.3 18:28:29 10° S 18:34:19 32° ESE 18:35:14 31° E
NOAA 12 4.0 18:30:12 10° SSE 18:35:30 76° ENE 18:40:50 10° N
MOS 1 4.5 18:31:37 10° S 18:37:18 75° WSW 18:43:01 10° NNW
Thor Agena Rocket 3.5 18:48:42 53° E 18:48:52 53° E 18:53:53 10° S
Cosmos 1602 3.7 18:47:17 10° N 18:51:08 78° W 18:54:58 10° S
COSMO-SKYMED 1 4.0 18:48:15 10° N 18:52:15 37° WNW 18:56:15 10° SW
CZ-4C R/B 3.1 18:45:49 10° NNW 18:52:48 49° NE 18:54:35 42° E
ERS-2 4.2 18:50:46 10° SSW 18:53:58 28° W 18:57:11 10° NW
Cosmos 405 Rocket 3.6 18:53:20 10° SSW 18:57:00 46° W 18:58:17 32° NNW
Cosmos 2082 Rocket 2.6 18:53:25 10° NNW 18:59:02 64° WSW 19:04:36 10° S
MOS 1-B Rocket 4.5 19:01:00 10° SSE 19:08:03 67° ENE 19:16:20 10° N
OAO 3 Rocket 3.9 19:05:44 10° WSW 19:09:56 46° S 19:09:56 46° S
Cosmos 44 Rocket 3.4 19:08:19 10° NNW 19:12:43 71° NW 19:12:43 71° NW
FengYun 1-2 T 4.1 19:08:28 10° SSE 19:13:59 88° ENE 19:19:34 10° NNW
Cosmos 968 Rocket 3.7 19:12:51 10° SSW 19:17:58 65° WNW 19:18:34 60° NNW
Nadezhda 4 Rocket 4.1 19:15:46 10° N 19:21:51 72° W 19:27:55 10° S
Timation 2 Rocket 4.0 19:23:42 10° NNW 19:30:09 82° N 19:30:09 82° N
USA 234 3.9 19:30:18 38° N 19:32:06 47° NW 19:38:16 10° WSW
Cosmos 2369 Rocket 4.2 19:47:42 10° SSW 19:49:02 18° SSW 19:49:02 18° SSW
CZ-4C R/B 4.2 20:34:34 10° NW 20:39:51 36° W 20:39:51 36° W
